Location: Unspecified
(0.0000°N, 0.0000°E)
Time: 09:06:08
(UTC+00:00)

SR - All Passes

Search period start: 03 April 2020 00:00
Search period end: 13 April 2020 00:00
Orbit: 578 x 878 km, 66.7° (Epoch: 02 April)

Date Brightness Start Highest point End Pass type
(mag) Time Alt. Az. Time Alt. Az. Time Alt. Az.
03 Apr - 02:28:57 10° SE 02:31:01 12° ESE 02:33:05 10° E visible
03 Apr - 04:07:12 10° SSW 04:12:53 54° WNW 04:18:37 10° N visible
03 Apr - 14:54:18 10° NNE 14:57:21 19° ENE 15:00:21 10° ESE daylight
03 Apr - 16:36:36 10° WNW 16:39:05 15° WSW 16:41:33 10° SSW daylight
04 Apr - 03:17:30 10° S 03:23:16 64° ESE 03:29:06 10° NNE visible
04 Apr - 15:45:25 10° NW 15:49:29 46° WSW 15:53:32 10° S daylight
05 Apr - 02:28:49 10° SSE 02:33:40 27° ESE 02:38:32 10° NE visible
05 Apr - 04:10:50 10° WSW 04:15:32 25° WNW 04:20:14 10° NNW visible
05 Apr - 14:55:46 10° N 14:59:55 52° ENE 15:04:01 10° SSE daylight
06 Apr - 01:42:40 10° ESE 01:44:00 11° ESE 01:45:22 10° E night (unlit)
06 Apr - 03:20:09 10° SSW 03:25:54 59° WNW 03:31:41 10° N visible
06 Apr - 14:07:30 10° NNE 14:10:19 17° ENE 14:13:06 10° ESE daylight
06 Apr - 15:49:18 10° WNW 15:52:02 17° WSW 15:54:47 10° SSW daylight
07 Apr - 02:30:32 10° S 02:36:17 59° ESE 02:42:05 10° NNE visible
07 Apr - 04:16:54 10° W 04:18:12 11° WNW 04:19:29 10° WNW visible
07 Apr - 14:58:20 10° NNW 15:02:28 51° WSW 15:06:33 10° S daylight
08 Apr - 01:41:58 10° SSE 01:46:41 25° ESE 01:51:24 10° NE night (unlit)
08 Apr - 03:23:40 10° SW 03:28:32 27° WNW 03:33:24 10° NNW visible
08 Apr - 14:08:48 10° N 14:12:53 47° ENE 14:16:56 10° SE daylight
09 Apr - 02:33:07 10° SSW 02:38:54 64° WNW 02:44:44 10° N night (unlit)
09 Apr - 13:20:45 10° NNE 13:23:17 15° ENE 13:25:48 10° ESE daylight
09 Apr - 15:02:03 10° WNW 15:05:00 19° WSW 15:07:58 10° SSW daylight
10 Apr - 01:43:35 10° S 01:49:18 55° ESE 01:55:02 10° NNE night (unlit)
10 Apr - 03:29:09 10° W 03:31:11 12° WNW 03:33:14 10° NW night (unlit)
10 Apr - 14:11:16 10° NNW 14:15:25 57° WSW 14:19:34 10° S daylight
11 Apr - 00:55:08 10° SSE 00:59:40 23° ESE 01:04:14 10° ENE night (unlit)
11 Apr - 02:36:32 10° SW 02:41:32 29° WNW 02:46:32 10° NNW night (unlit)
11 Apr - 13:21:50 10° N 13:25:51 42° ENE 13:29:50 10° SE daylight
12 Apr - 01:46:04 10° SSW 01:51:55 69° WNW 01:57:45 10° NNE night (unlit)
12 Apr - 12:34:01 10° NE 12:36:14 14° ENE 12:38:27 10° ESE daylight
12 Apr - 14:14:49 10° WNW 14:17:58 20° WSW 14:21:08 10° SSW daylight
